Regional Weather Roundup
Issued by NWS

Home | Current Version | Previous Version | Text Only | Print | Product List | Glossary Off
Versions: 1 2 3 4 5 6 7 8 9 10 11 12 13 14 15 16 17 18 19 20 21 22 23 24 25 26 27 28 29 30 31 32 33 34 35 36 37 38 39 40 41 42 43 44 45 46 47 48 49 50

000
ASUS43 KFSD 281010
RWRSD

WEATHER ROUNDUP FOR SOUTH DAKOTA
NATIONAL WEATHER SERVICE SIOUX FALLS SD
500 AM CDT THU JUL 28 2016

NOTE: "FAIR" INDICATES FEW OR NO CLOUDS BELOW 12,000 FEET WITH NO
SIGNIFICANT WEATHER AND/OR OBSTRUCTIONS TO VISIBILITY.


SDZ001>005-009-010-012>017-281100-
NORTHWEST AND NORTH CENTRAL SOUTH DAKOTA

CITY           SKY/WX    TMP DP  RH WIND       PRES   REMARKS
BUFFALO          N/A     59  58  96 NE10      30.06S
FAITH            N/A     59  57  93 SE6       30.11R
MOBRIDGE       CLEAR     62  58  86 SE5       30.08R
$$

SDZ012>016-024>037-041>051-057-063-072>074-281100-
SOUTHWEST AND SOUTH CENTRAL SOUTH DAKOTA

CITY           SKY/WX    TMP DP  RH WIND       PRES   REMARKS
RAPID CTY ARPT RAIN      65  59  81 W9        30.15R
PIERRE         CLOUDY    61  59  93 NE7       30.08R
CUSTER         LGT RAIN  56  50  80 NW8       30.29F
ELLSWORTH AFB  SHOWER    65  62  87 N7        30.14S
PHILIP         MOCLDY    59  58  96 CALM      30.10R
PINE RIDGE     LGT RAIN  63  63 100 NW7       30.14S
WINNER         FAIR      60  57  89 CALM      30.10R
$$

SDZ004>011-016>023-039-040-281100-
NORTHEAST SOUTH DAKOTA

CITY           SKY/WX    TMP DP  RH WIND       PRES   REMARKS
ABERDEEN       CLOUDY    61  57  87 N7        30.07F
WATERTOWN      CLOUDY    61  58  90 N6        30.05S
BROOKINGS      PTCLDY    60  57  89 N6        30.04S
SISSETON         N/A     61  58  90 N8        30.05R
$$

SDZ017-020-022-023-036>040-048>070-281100-
SOUTHEAST SOUTH DAKOTA

CITY           SKY/WX    TMP DP  RH WIND       PRES   REMARKS
SIOUX FALLS    MOCLDY    63  58  83 CALM      30.03S
HURON          PTCLDY    60  58  92 NW5       30.05S
CHAMBERLAIN    PTCLDY    64  59  83 E3        30.09R
MITCHELL       CLEAR     62  60  93 N5        30.06R
YANKTON        PTCLDY    64  59  82 NW5       30.04R
$$

ABBREVIATIONS USED IN REMARKS
   TC - TEMPERATURE IN CELSIUS
  WCI - WIND CHILL INDEX
   HX - HEAT INDEX
  VSB - VISIBILITY





USA.gov is the U.S. government's official web portal to all federal, state and local government web resources and services.